sat.trackr.live / text

‹ back to catalog

POISK

NORAD 36086 · 2009-060A

PAYLOAD ACTIVE UNKNOWN

§ Identity

Operator
Country
ISS
Launch date
2009-11-10
Launch site
TYMSC
Launch vehicle
Mass (kg)
RCS (m²)
11.18

Purposes: station

External: N2YO · Heavens-Above · Gunter

§ Orbital elements

Epoch: 2026-09-20T03:25:16.706208Z

Period
92.95 min
Inclination
51.6307°
Eccentricity
0.0004820
Mean motion
15.49188396 rev/d
Perigee alt
415.8 km
Apogee alt
422.4 km
Semi-major
6,797.2 km
B*
1.4267e-4
RAAN
190.1401°
Arg perigee
160.6694°
Mean anomaly
199.4478°
Rev number
58,695

§ Raw data

POISK1 36086U 09060A   26263.14255447  .00007470  00000+0  14267-3 0  99992 36086  51.6307 190.1401 0004820 160.6694 199.4478 15.49188396586958

JSON: /api/v1/satellites/36086 · /tle

For live sub-satellite position, see the globe view (requires WebGL).

§ Visibility from observer

Set your observer location to see the next 7 days of passes ≥ 10°. The values pass through the URL so the page stays shareable.

No JS? Fill the form by hand. The geolocation button needs JavaScript.